This is the latest recevied weather packets stored in our database for station/object RV1CJ-14. If no packets are shown the sender has not sent any weather packets the latest 10 day(s).
| Time | Temp. | Humidity | Pressure | Rain* | Wind** | Luminosity | Snow |
|---|---|---|---|---|---|---|---|
| 1777883403 | 16.67° C | 62% | 1001.3 hPa | 0 mm | - | 195 W/m² | - |
| 1777882803 | 16.67° C | 62% | 1001.4 hPa | 0 mm | - | 179 W/m² | - |
| 1777882203 | 16.67° C | 63% | 1001.5 hPa | 0 mm | - | 267 W/m² | - |
| 1777881603 | 16.67° C | 63% | 1001.5 hPa | 0 mm | - | 251 W/m² | - |
| 1777881003 | 16.67° C | 63% | 1001.6 hPa | 0 mm | - | 223 W/m² | - |
| 1777880403 | 16.67° C | 64% | 1001.6 hPa | 0 mm | - | 255 W/m² | - |
| 1777879803 | 16.11° C | 64% | 1001.7 hPa | 0 mm | - | 302 W/m² | - |
| 1777879203 | 16.11° C | 64% | 1001.9 hPa | 0 mm | - | 406 W/m² | - |
| 1777878603 | 15° C | 66% | 1002 hPa | 0 mm | - | 359 W/m² | - |
| 1777878003 | 15° C | 66% | 1002.2 hPa | 0 mm | - | 207 W/m² | - |
| 1777877403 | 14.44° C | 66% | 1002.3 hPa | 0 mm | - | 192 W/m² | - |
| 1777876803 | 14.44° C | 66% | 1002.3 hPa | 0 mm | - | 243 W/m² | - |
| 1777876203 | 13.89° C | 67% | 1002.4 hPa | 0 mm | - | 308 W/m² | - |
| 1777875603 | 13.89° C | 67% | 1002.4 hPa | 0 mm | - | 105 W/m² | - |
| 1777875003 | 13.89° C | 67% | 1002.5 hPa | 0 mm | - | 67 W/m² | - |
| 1777874403 | 13.89° C | 67% | 1002.5 hPa | 0 mm | - | 118 W/m² | - |
| 1777873803 | 13.89° C | 69% | 1002.6 hPa | 0 mm | - | 185 W/m² | - |
| 1777873203 | 13.33° C | 71% | 1002.7 hPa | 0 mm | - | 338 W/m² | - |
| 1777872603 | 12.78° C | 73% | 1002.7 hPa | 0 mm | - | 267 W/m² | - |
| 1777872003 | 12.22° C | 74% | 1002.8 hPa | 0 mm | - | 114 W/m² | - |
| 1777871403 | 12.22° C | 74% | 1002.8 hPa | 0 mm | - | 76 W/m² | - |
| 1777870803 | 11.67° C | 75% | 1003 hPa | 0 mm | - | 105 W/m² | - |
| 1777870203 | 11.67° C | 75% | 1003 hPa | 0 mm | - | 88 W/m² | - |
| 1777869603 | 11.67° C | 75% | 1003.1 hPa | 0 mm | - | 51 W/m² | - |
| 1777869003 | 11.11° C | 75% | 1003.2 hPa | 0 mm | - | 26 W/m² | - |
* Rain latest hour (hover to see other rain measurements)
** Current wind speed in m/s (hover to see current wind gust speed)